Simultaneous Nadir Overpasses (SNOs) Predictions

Prediction of SNOs between METOP-B and NOAA-19 Satellite Orbit:

Table of predicted SNOs for the next 14.0 days since TLE Epoch: 4/12/2019
Index Date (METOP-B) Time (METOP-B) Lat,Lon (METOP-B) SZA (METOP-B ) Date (NOAA-19) Time (NOAA-19) Lat,Lon (NOAA-19) SZA (NOAA-19 ) Distance(km) Time Diff (sec)
1 04/19/2019 10:54:34 -79.43,-146.50 111.28 04/19/2019 10:53:30 -79.43,-150.98 111.52 91.41 64
2 04/19/2019 11:45:23 79.14, 18.61 68.31 04/19/2019 11:44:27 79.16, 18.71 68.32 2.87 56
3 04/19/2019 12:36:04 -79.15,-174.03 111.70 04/19/2019 12:35:22 -79.16,-174.06 111.69 1.94 42
4 04/19/2019 13:26:45 79.13, -6.83 68.27 04/19/2019 13:26:28 79.16, -6.82 68.30 3.73 17
5 04/19/2019 14:17:26 -79.13, 160.54 111.74 04/19/2019 14:17:22 -79.13, 160.68 111.73 2.93 4
6 04/19/2019 15:08:06 79.15, -32.02 68.27 04/19/2019 15:08:28 79.13, -32.08 68.26 2.26 22
7 04/19/2019 15:58:48 -79.12, 135.10 111.78 04/19/2019 15:59:23 -79.14, 135.15 111.75 2.32 35
8 04/19/2019 16:49:28 79.14, -57.45 68.23 04/19/2019 16:50:29 79.14, -57.61 68.24 3.21 61




NCC Satellite Simultaneous Nadir Overpasses (SNOs) Prediction Service
